(134885) = 2000 SZ38

Discovered at Socorro on 2000-09-24 by LINEAR.

Orbit

Orbit type: Main Belt

Note: WebGL enabled browser required.

epoch2024-03-31.0
epoch JD2460400.5
perihelion date2023-08-05.79262
perihelion JD2460162.29262
argument of perihelion (°)344.13041
ascending node (°)24.65825
inclination (°)15.92693
eccentricity0.1873427
perihelion distance (AU)2.5971804
Tisserand w.r.t. Jupiter3.1
ΔV w.r.t. Earth (km/sec)11.2
semimajor axis (AU)3.1959109
mean anomaly (°)41.09293
mean daily motion (°/day)0.17250900
aphelion distance (AU)3.795
period (years)5.71
P-vector [x]0.98387924
P-vector [y]0.17878304
P-vector [z]-0.00427428
Q-vector [x]-0.13738513
Q-vector [y]0.77092703
Q-vector [z]0.62192994
absolute magnitude14.36
phase slope0.15
uncertainty0
referenceMPEC 2024-C163
observations used1244
oppositions19
arc length (days)8533
first opposition used2000
last opposition used2024
residual rms (arc-secs)0.67
perturbers coarse indicatorM-v
perturbers precise indicator003Ek
first observation date used2000-09-05.0
last observation date used2024-01-16.0
computer nameMPCLINUX
JD of orbit computation2456819.637877
perihelion JD uncertainty (days)1.1923E-04
argument of perihelion uncertainty (°)2.7785E-05
ascending node uncertainty (°)1.9577E-05
inclination uncertainty (°)8.0316E-06
eccentricity uncertainty 8.0036E-08
perihelion distance uncertainty (AU)2.5125E-07
Minimum Orbit Intersection Distances (in AU)
for orbit epoch: 2460200.5, reference: E2024-CG3
Mercury2.24303
Venus1.87247
Earth1.60147
Mars1.189
Jupiter1.66899
Saturn5.7521
Uranus14.7115
Neptune26.8923

Observations

1263 total observations over interval: 2000 09 05.33638 – 2024 01 16.189147
These data are available for download (format description).

Date (UT) J2000 RA J2000 Dec Magn Location Ref
2000 09 05.33638 01 19 54.34 -00 28 47.2 18.5   704 – Lincoln Laboratory ETS, New Mexico MPS 21166
2000 09 05.34986 01 19 54.00 -00 28 45.7 18.9   704 – Lincoln Laboratory ETS, New Mexico MPS 21166
2000 09 05.36343 01 19 53.55 -00 28 45.7 18.6   704 – Lincoln Laboratory ETS, New Mexico MPS 21166
2000 09 05.37734 01 19 53.08 -00 28 44.9 19.0   704 – Lincoln Laboratory ETS, New Mexico MPS 21166
2000 09 05.39069 01 19 52.66 -00 28 43.4 18.7   704 – Lincoln Laboratory ETS, New Mexico MPS 21166
2000 09 23.39439 01 07 23.93 -00 15 31.8 17.7 R 699 – Lowell Observatory-LONEOS MPS 30127
2000 09 23.40985 01 07 23.12 -00 15 30.9   699 – Lowell Observatory-LONEOS MPS 30127
2000 09 23.42519 01 07 22.32 -00 15 30.4   699 – Lowell Observatory-LONEOS MPS 30127
2000 09 23.44060 01 07 21.47 -00 15 29.7   699 – Lowell Observatory-LONEOS MPS 30127
2000 09 24.33605 01 06 35.09 -00 14 57.0 18.0   704 – Lincoln Laboratory ETS, New Mexico MPS 19802
2000 09 24.35129 01 06 34.24 -00 14 55.5 17.8   704 – Lincoln Laboratory ETS, New Mexico MPS 19802
2000 09 24.36674 01 06 33.40 -00 14 55.3 17.7   704 – Lincoln Laboratory ETS, New Mexico MPS 19802
2000 09 24.38309 01 06 32.50 -00 14 54.8 17.8   704 – Lincoln Laboratory ETS, New Mexico MPS 19802
2000 09 24.39824 01 06 31.66 -00 14 53.6 17.9   704 – Lincoln Laboratory ETS, New Mexico MPS 19802
2000 09 25.35832 01 05 41.01 -00 14 17.6 18.9   704 – Lincoln Laboratory ETS, New Mexico MPS 19802
2000 09 25.37353 01 05 40.20 -00 14 18.1 18.1   704 – Lincoln Laboratory ETS, New Mexico MPS 19802
2000 09 25.38867 01 05 39.36 -00 14 17.2 18.4   704 – Lincoln Laboratory ETS, New Mexico MPS 19802
2000 09 25.40383 01 05 38.54 -00 14 16.7 17.9   704 – Lincoln Laboratory ETS, New Mexico MPS 19802
2000 09 25.45594 01 05 35.85 -00 14 13.4 18.7   608 – Haleakala-AMOS MPS 19802
2000 09 25.46665 01 05 35.27 -00 14 12.9 18.2   608 – Haleakala-AMOS MPS 19802
2000 09 25.47789 01 05 34.65 -00 14 12.6 18.7   608 – Haleakala-AMOS MPS 19802
2000 10 02.33690 00 59 15.28 -00 09 21.6 17.7   704 – Lincoln Laboratory ETS, New Mexico MPS 19802
2000 10 02.35182 00 59 14.41 -00 09 21.2 17.7   704 – Lincoln Laboratory ETS, New Mexico MPS 19802
2000 10 02.36658 00 59 13.58 -00 09 20.0 18.1   704 – Lincoln Laboratory ETS, New Mexico MPS 19802
2000 10 02.38099 00 59 12.68 -00 09 19.3 17.7   704 – Lincoln Laboratory ETS, New Mexico MPS 19802
2000 10 02.39543 00 59 11.86 -00 09 18.3 17.9   704 – Lincoln Laboratory ETS, New Mexico MPS 19802
2000 10 24.26571 00 39 12.55 +00 24 09.8 18.2   704 – Lincoln Laboratory ETS, New Mexico MPS 21166
2000 10 24.29307 00 39 11.18 +00 24 15.0 18.5   704 – Lincoln Laboratory ETS, New Mexico MPS 21166
2000 10 24.30677 00 39 10.52 +00 24 16.8 18.6   704 – Lincoln Laboratory ETS, New Mexico MPS 21166
2000 10 25.21507 00 38 27.50 +00 26 31.8 17.6   704 – Lincoln Laboratory ETS, New Mexico MPS 21166
2000 10 25.22946 00 38 26.82 +00 26 34.0 18.4   704 – Lincoln Laboratory ETS, New Mexico MPS 21166
2000 10 25.22986 00 38 26.77 +00 26 34.8 19.2   704 – Lincoln Laboratory ETS, New Mexico MPS 21166
2000 10 25.24326 00 38 26.12 +00 26 36.3 18.0   704 – Lincoln Laboratory ETS, New Mexico MPS 21166
2000 10 25.24365 00 38 26.09 +00 26 36.8 19.1   704 – Lincoln Laboratory ETS, New Mexico MPS 21166
2000 10 25.25714 00 38 25.46 +00 26 37.9 18.4   704 – Lincoln Laboratory ETS, New Mexico MPS 21166
2000 10 25.25753 00 38 25.47 +00 26 38.9 19.0   704 – Lincoln Laboratory ETS, New Mexico MPS 21166
2000 10 25.27164 00 38 24.72 +00 26 40.7 18.3   704 – Lincoln Laboratory ETS, New Mexico MPS 21166
2000 10 25.27204 00 38 24.71 +00 26 42.3 19.2   704 – Lincoln Laboratory ETS, New Mexico MPS 21166
2000 10 27.15575 00 36 58.48 +00 31 38.0 18.5 V 691 – Steward Observatory, Kitt Peak-Spacewatch MPS 21166
2000 10 27.17786 00 36 57.46 +00 31 41.6 18.5 V 691 – Steward Observatory, Kitt Peak-Spacewatch MPS 21166
2000 10 27.20974 00 36 55.96 +00 31 46.8 19.4 V 691 – Steward Observatory, Kitt Peak-Spacewatch MPS 21166
2000 10 29.22736 00 35 28.01 +00 37 30.2 18.0   704 – Lincoln Laboratory ETS, New Mexico MPS 21166
2000 10 29.24293 00 35 27.30 +00 37 34.0 18.6   704 – Lincoln Laboratory ETS, New Mexico MPS 21166
2000 10 29.25824 00 35 26.64 +00 37 35.6 18.2   704 – Lincoln Laboratory ETS, New Mexico MPS 21166
2000 10 29.27282 00 35 26.04 +00 37 38.8 17.9   704 – Lincoln Laboratory ETS, New Mexico MPS 21166
2000 10 29.28753 00 35 25.36 +00 37 41.0 18.4   704 – Lincoln Laboratory ETS, New Mexico MPS 21166
2000 11 02.20817 00 32 49.89 +00 50 04.7 18.3   704 – Lincoln Laboratory ETS, New Mexico MPS 21166
2000 11 02.22187 00 32 49.34 +00 50 07.6 18.3   704 – Lincoln Laboratory ETS, New Mexico MPS 21166
2000 11 02.23573 00 32 48.77 +00 50 10.8 17.8   704 – Lincoln Laboratory ETS, New Mexico MPS 21166
2000 11 02.24931 00 32 48.26 +00 50 12.9 18.6   704 – Lincoln Laboratory ETS, New Mexico MPS 21166
2000 11 02.26339 00 32 47.73 +00 50 16.3 18.6   704 – Lincoln Laboratory ETS, New Mexico MPS 21166
2000 11 18.20303 00 26 07.10 +01 57 46.9 18.3 R 699 – Lowell Observatory-LONEOS MPS 25170
2000 11 18.21476 00 26 06.94 +01 57 50.0   699 – Lowell Observatory-LONEOS MPS 25170
2000 11 18.22652 00 26 06.72 +01 57 53.4   699 – Lowell Observatory-LONEOS MPS 25170
2000 11 18.23830 00 26 06.62 +01 57 56.9   699 – Lowell Observatory-LONEOS MPS 25170
2000 11 21.14603 00 25 36.24 +02 13 09.8 18.2   704 – Lincoln Laboratory ETS, New Mexico MPS 22470
2000 11 21.16188 00 25 36.04 +02 13 15.1 18.8   704 – Lincoln Laboratory ETS, New Mexico MPS 22470
2000 11 21.17696 00 25 35.98 +02 13 20.0 19.0   704 – Lincoln Laboratory ETS, New Mexico MPS 22470
2000 11 21.19196 00 25 35.82 +02 13 24.3 19.3   704 – Lincoln Laboratory ETS, New Mexico MPS 22470
2000 11 26.14216 00 25 14.97 +02 41 15.6 18.8   704 – Lincoln Laboratory ETS, New Mexico MPS 22470
2000 11 26.17773 00 25 14.89 +02 41 26.7 19.8   704 – Lincoln Laboratory ETS, New Mexico MPS 22470
2000 11 26.19283 00 25 14.81 +02 41 33.3 19.7   704 – Lincoln Laboratory ETS, New Mexico MPS 22470
2000 11 26.22678 00 25 14.81 +02 41 44.3 19.0   704 – Lincoln Laboratory ETS, New Mexico MPS 22470
2001 12 08.38758 08 20 03.23 +41 06 05.2 19.7   704 – Lincoln Laboratory ETS, New Mexico MPS 43478
2001 12 08.41755 08 20 02.50 +41 06 17.6 19.6   704 – Lincoln Laboratory ETS, New Mexico MPS 43478
2001 12 08.43253 08 20 02.18 +41 06 23.3 19.9   704 – Lincoln Laboratory ETS, New Mexico MPS 43478
2001 12 19.31594 08 13 54.64 +42 16 00.4 18.9 R 699 – Lowell Observatory-LONEOS MPS 43478
2001 12 19.33480 08 13 53.81 +42 16 07.0   699 – Lowell Observatory-LONEOS MPS 43478
2001 12 19.35367 08 13 52.96 +42 16 14.3   699 – Lowell Observatory-LONEOS MPS 43478
2001 12 19.37254 08 13 52.07 +42 16 20.8   699 – Lowell Observatory-LONEOS MPS 43478
2001 12 23.37202 08 10 47.35 +42 39 58.6 19.9   704 – Lincoln Laboratory ETS, New Mexico MPS 46541
2001 12 23.38728 08 10 46.57 +42 40 02.0 20.2   704 – Lincoln Laboratory ETS, New Mexico MPS 46541
2001 12 23.40254 08 10 45.74 +42 40 07.9 20.2   704 – Lincoln Laboratory ETS, New Mexico MPS 46541
2001 12 23.41780 08 10 45.02 +42 40 13.7 20.4   704 – Lincoln Laboratory ETS, New Mexico MPS 46541
2001 12 23.43305 08 10 44.21 +42 40 18.6 20.5   704 – Lincoln Laboratory ETS, New Mexico MPS 46541
2002 01 06.29564 07 57 27.16 +43 45 31.2 19.1   704 – Lincoln Laboratory ETS, New Mexico MPS 49067
2002 01 06.31061 07 57 26.21 +43 45 33.9 19.0   704 – Lincoln Laboratory ETS, New Mexico MPS 49067
2002 01 06.32559 07 57 25.23 +43 45 37.4 19.3   704 – Lincoln Laboratory ETS, New Mexico MPS 49067
2002 01 06.34056 07 57 24.27 +43 45 40.2 19.5   704 – Lincoln Laboratory ETS, New Mexico MPS 49067
2002 01 06.35555 07 57 23.25 +43 45 43.4 19.4   704 – Lincoln Laboratory ETS, New Mexico MPS 49067
2002 01 19.19348 07 43 19.26 +44 13 53.5 19.3 R 699 – Lowell Observatory-LONEOS MPS 49067
2002 01 19.22021 07 43 17.67 +44 13 54.3   699 – Lowell Observatory-LONEOS MPS 49067
2002 01 19.24696 07 43 15.69 +44 13 55.2   699 – Lowell Observatory-LONEOS MPS 49067
2002 01 19.27380 07 43 13.94 +44 13 58.4   699 – Lowell Observatory-LONEOS MPS 49067
2002 01 25.25807 07 36 53.21 +44 14 45.9 19.7   704 – Lincoln Laboratory ETS, New Mexico MPS 46541
